Time,TemperatureF,DewpointF,PressureIn,WindDirection,WindDirectionDegrees,WindSpeedMPH,WindSpeedGustMPH,Humidity,HourlyPrecipIn,Conditions,Clouds,dailyrainin,SoftwareType,DateUTC
2013-06-09 00:00:00,57.2,50.1,29.98,SW,235,0.0,0.0,77,0.00,,SCT033,0.00,VWS V15.00,2013-06-09 04:00:00,
2013-06-09 00:02:00,57.1,50.0,29.98,SW,235,0.0,0.0,77,0.00,,BKN250,0.00,VWS V14.01,2013-06-09 04:02:00,
2013-06-09 00:03:00,57.1,50.0,29.98,SW,235,0.0,0.0,77,0.00,,BKN250,0.00,VWS V14.01,2013-06-09 04:03:00,
2013-06-09 00:04:00,57.0,49.9,29.98,SW,235,0.0,0.0,77,0.00,,BKN250,0.00,VWS V14.01,2013-06-09 04:04:00,
2013-06-09 00:05:00,57.0,49.9,29.98,SW,235,0.0,0.0,77,0.00,,BKN250,0.00,VWS V14.01,2013-06-09 04:05:00,
2013-06-09 00:10:00,56.9,50.1,29.98,SW,235,0.0,0.0,78,0.00,,BKN250,0.00,VWS V14.01,2013-06-09 04:10:00,
2013-06-09 00:15:00,56.7,49.9,29.98,SW,235,0.0,0.0,78,0.00,,BKN250,0.00,VWS V14.01,2013-06-09 04:15:00,
2013-06-09 00:20:00,56.7,50.3,29.98,SW,235,0.0,0.0,79,0.00,,BKN250,0.00,VWS V14.01,2013-06-09 04:20:00,
2013-06-09 00:25:00,56.6,50.5,29.98,SW,235,0.0,0.0,80,0.00,,SCT250,0.00,VWS V14.01,2013-06-09 04:25:00,
2013-06-09 00:30:00,56.6,50.5,29.99,SW,235,0.0,0.0,80,0.00,,SCT250,0.00,VWS V14.01,2013-06-09 04:30:00,
2013-06-09 00:35:00,56.6,50.8,29.99,SW,235,0.0,0.0,81,0.00,,SCT250,0.00,VWS V14.01,2013-06-09 04:35:00,
2013-06-09 00:40:00,56.5,50.8,29.98,SW,235,0.0,0.0,81,0.00,,SCT250,0.00,VWS V14.01,2013-06-09 04:40:00,
2013-06-09 00:45:00,56.5,51.1,29.98,SW,235,0.0,0.0,82,0.00,,SCT033,0.00,VWS V15.00,2013-06-09 04:45:00,
2013-06-09 00:46:00,56.5,51.1,29.98,SW,235,0.0,0.0,82,0.00,,SCT250,0.00,VWS V14.01,2013-06-09 04:46:00,
2013-06-09 00:51:00,56.5,51.1,29.99,SW,235,0.0,0.0,82,0.00,,SCT250,0.00,VWS V14.01,2013-06-09 04:51:00,
2013-06-09 00:56:00,56.5,51.4,29.99,SW,235,0.0,0.0,83,0.00,,SCT250,0.00,VWS V14.01,2013-06-09 04:56:00,
2013-06-09 01:00:00,56.6,51.5,29.99,SW,235,0.0,0.0,83,0.00,,SCT033,0.00,VWS V15.00,2013-06-09 05:00:00,
2013-06-09 01:01:00,56.7,51.9,29.99,SW,235,0.0,0.0,84,0.00,,SCT250,0.00,VWS V14.01,2013-06-09 05:01:00,
2013-06-09 01:06:00,56.8,52.0,29.99,SW,235,0.0,0.0,84,0.00,,SCT250,0.00,VWS V14.01,2013-06-09 05:06:00,
2013-06-09 01:11:00,57.2,52.7,29.99,SW,235,0.0,0.0,85,0.00,,SCT250,0.00,VWS V14.01,2013-06-09 05:11:00,
2013-06-09 01:15:00,57.4,52.9,29.99,SW,235,0.0,0.0,85,0.00,,SCT033,0.00,VWS V15.00,2013-06-09 05:15:00,
2013-06-09 01:16:00,57.5,53.0,29.99,SW,235,0.0,0.0,85,0.00,,SCT250,0.00,VWS V14.01,2013-06-09 05:16:00,
2013-06-09 01:21:00,57.8,53.3,29.99,SW,235,0.0,0.0,85,0.00,,CLR,0.00,VWS V14.01,2013-06-09 05:21:00,
2013-06-09 01:26:00,58.1,53.6,29.99,SW,235,0.0,1.0,85,0.00,,CLR,0.00,VWS V14.01,2013-06-09 05:26:00,
2013-06-09 01:30:00,58.2,53.4,29.99,SW,235,0.0,0.0,84,0.00,,SCT033,0.00,VWS V15.00,2013-06-09 05:30:00,
2013-06-09 01:31:00,58.2,53.4,29.99,SW,235,0.0,0.0,84,0.00,,CLR,0.00,VWS V14.01,2013-06-09 05:31:00,
2013-06-09 01:37:00,58.3,53.5,29.99,SW,235,0.0,0.0,84,0.00,,CLR,0.00,VWS V14.01,2013-06-09 05:37:00,
2013-06-09 01:42:00,58.5,53.7,29.99,SW,235,0.0,0.0,84,0.00,,CLR,0.00,VWS V14.01,2013-06-09 05:42:00,
2013-06-09 01:45:00,58.5,53.7,29.99,SW,235,0.0,0.0,84,0.00,,SCT033,0.00,VWS V15.00,2013-06-09 05:45:00,
2013-06-09 01:47:00,58.6,53.8,29.99,SW,235,0.0,0.0,84,0.00,,CLR,0.00,VWS V14.01,2013-06-09 05:47:00,
2013-06-09 01:52:00,58.6,53.5,29.99,SW,235,0.0,0.0,83,0.00,,CLR,0.00,VWS V14.01,2013-06-09 05:52:00,
2013-06-09 01:57:00,58.7,53.6,30.00,SW,235,0.0,0.0,83,0.00,,CLR,0.00,VWS V14.01,2013-06-09 05:57:00,
2013-06-09 02:00:00,58.7,53.6,29.99,SW,235,0.0,4.0,83,0.00,,SCT033,0.00,VWS V15.00,2013-06-09 06:00:00,
2013-06-09 02:02:00,58.7,53.6,30.00,SW,235,0.0,0.0,83,0.00,,CLR,0.00,VWS V14.01,2013-06-09 06:02:00,
2013-06-09 02:07:00,58.7,53.6,29.99,SW,235,0.0,0.0,83,0.00,,CLR,0.00,VWS V14.01,2013-06-09 06:07:00,
2013-06-09 02:12:00,58.8,53.7,29.99,SW,235,0.0,0.0,83,0.00,,CLR,0.00,VWS V14.01,2013-06-09 06:12:00,
2013-06-09 02:15:00,58.8,53.7,29.99,SW,235,0.0,0.0,83,0.00,,SCT033,0.00,VWS V15.00,2013-06-09 06:15:00,
2013-06-09 02:17:00,58.9,53.8,30.00,SW,235,0.0,0.0,83,0.00,,CLR,0.00,VWS V14.01,2013-06-09 06:17:00,
2013-06-09 02:22:00,59.1,54.0,30.00,SW,235,0.0,0.0,83,0.00,,CLR,0.00,VWS V14.01,2013-06-09 06:22:00,
2013-06-09 02:28:00,59.2,53.7,30.00,SW,235,0.0,4.0,82,0.00,,CLR,0.00,VWS V14.01,2013-06-09 06:28:00,
2013-06-09 02:30:00,59.2,53.7,29.99,SW,235,0.0,0.0,82,0.00,,SCT033,0.00,VWS V15.00,2013-06-09 06:30:00,
2013-06-09 02:33:00,59.3,53.8,30.00,SW,235,0.0,0.0,82,0.00,,CLR,0.00,VWS V14.01,2013-06-09 06:33:00,
2013-06-09 02:38:00,59.5,54.0,29.99,SW,235,0.0,0.0,82,0.00,,CLR,0.00,VWS V14.01,2013-06-09 06:38:00,
2013-06-09 02:43:00,59.7,54.2,30.00,SW,235,0.0,0.0,82,0.00,,CLR,0.00,VWS V14.01,2013-06-09 06:43:00,
2013-06-09 02:45:00,59.7,54.2,30.00,SW,235,0.0,0.0,82,0.00,,SCT033,0.00,VWS V15.00,2013-06-09 06:45:00,
2013-06-09 02:48:00,59.8,54.0,30.00,SW,235,0.0,0.0,81,0.00,,CLR,0.00,VWS V14.01,2013-06-09 06:48:00,
2013-06-09 02:53:00,59.9,54.1,30.00,SW,235,0.0,0.0,81,0.00,,CLR,0.00,VWS V14.01,2013-06-09 06:53:00,
2013-06-09 02:58:00,60.0,54.2,29.99,SW,235,0.0,0.0,81,0.00,,CLR,0.00,VWS V14.01,2013-06-09 06:58:00,
2013-06-09 03:00:00,60.1,54.3,29.99,SW,235,0.0,1.0,81,0.00,,SCT033,0.00,VWS V15.00,2013-06-09 07:00:00,
2013-06-09 03:04:00,60.1,54.3,30.00,SW,235,0.0,0.0,81,0.00,,BKN085,0.00,VWS V14.01,2013-06-09 07:04:00,
2013-06-09 03:09:00,60.2,54.4,29.99,SW,235,0.0,0.0,81,0.00,,BKN085,0.00,VWS V14.01,2013-06-09 07:09:00,
2013-06-09 03:14:00,60.4,54.2,30.00,SW,235,0.0,0.0,80,0.00,,BKN085,0.00,VWS V14.01,2013-06-09 07:14:00,
2013-06-09 03:15:00,60.4,54.2,29.99,SW,235,0.0,0.0,80,0.00,,SCT033,0.00,VWS V15.00,2013-06-09 07:15:00,
2013-06-09 03:19:00,60.4,54.2,30.00,SW,235,0.0,0.0,80,0.00,,BKN085,0.00,VWS V14.01,2013-06-09 07:19:00,
2013-06-09 03:24:00,60.4,54.2,29.99,SW,235,0.0,0.0,80,0.00,,BKN085,0.00,VWS V14.01,2013-06-09 07:24:00,
2013-06-09 03:29:00,60.4,54.2,29.99,SW,235,0.0,0.0,80,0.00,,BKN085,0.00,VWS V14.01,2013-06-09 07:29:00,
2013-06-09 03:30:00,60.4,54.2,30.00,SW,235,0.0,0.0,80,0.00,,SCT033,0.00,VWS V15.00,2013-06-09 07:30:00,
2013-06-09 03:34:00,60.5,54.3,29.99,SW,233,0.0,0.0,80,0.00,,BKN085,0.00,VWS V14.01,2013-06-09 07:34:00,
2013-06-09 03:39:00,60.7,54.2,29.99,SW,231,0.0,1.0,79,0.00,,BKN085,0.00,VWS V14.01,2013-06-09 07:39:00,
2013-06-09 03:45:00,61.0,54.5,29.99,SSE,153,0.0,4.0,79,0.00,,BKN085,0.00,VWS V14.01,2013-06-09 07:45:00,
2013-06-09 03:50:00,61.2,54.6,29.99,SSE,153,0.0,0.0,79,0.00,,BKN085,0.00,VWS V14.01,2013-06-09 07:50:00,
2013-06-09 03:55:00,61.3,54.4,29.99,SSE,151,0.0,3.0,78,0.00,,BKN085,0.00,VWS V14.01,2013-06-09 07:55:00,
2013-06-09 04:00:00,61.4,54.5,29.99,SSE,147,0.0,8.0,78,0.00,,BKN085,0.00,VWS V14.01,2013-06-09 08:00:00,
2013-06-09 04:05:00,61.6,54.7,29.99,SE,145,0.0,3.0,78,0.00,,BKN085,0.00,VWS V14.01,2013-06-09 08:05:00,
2013-06-09 04:10:00,61.8,54.5,29.99,SE,145,0.0,0.0,77,0.00,,BKN085,0.00,VWS V14.01,2013-06-09 08:10:00,
2013-06-09 04:15:00,61.9,54.6,29.99,ESE,109,0.0,8.0,77,0.00,,CLR,0.00,VWS V14.01,2013-06-09 08:15:00,
2013-06-09 04:20:00,62.0,54.7,29.99,East,99,0.0,5.0,77,0.00,,CLR,0.00,VWS V14.01,2013-06-09 08:20:00,
2013-06-09 04:25:00,62.2,54.9,29.98,East,99,0.0,0.0,77,0.00,,CLR,0.00,VWS V14.01,2013-06-09 08:25:00,
2013-06-09 04:30:00,62.2,54.5,29.98,East,99,0.0,4.0,76,0.00,,SCT033,0.00,VWS V15.00,2013-06-09 08:30:00,
2013-06-09 04:31:00,62.2,54.5,29.98,East,99,8.0,8.0,76,0.00,,CLR,0.00,VWS V14.01,2013-06-09 08:31:00,
2013-06-09 04:36:00,62.2,54.5,29.98,East,99,4.0,10.0,76,0.00,,CLR,0.00,VWS V14.01,2013-06-09 08:36:00,
2013-06-09 04:41:00,62.2,54.5,29.98,East,98,2.0,4.0,76,0.00,,CLR,0.00,VWS V14.01,2013-06-09 08:41:00,
2013-06-09 04:45:00,62.2,54.5,29.98,East,97,3.0,7.0,76,0.00,,SCT033,0.00,VWS V15.00,2013-06-09 08:45:00,
2013-06-09 04:46:00,62.2,54.5,29.98,East,97,1.0,4.0,76,0.00,,CLR,0.00,VWS V14.01,2013-06-09 08:46:00,
2013-06-09 04:52:00,62.2,54.5,29.98,East,95,0.0,0.0,76,0.00,,CLR,0.00,VWS V14.01,2013-06-09 08:52:00,
2013-06-09 04:57:00,62.2,54.5,29.99,East,95,0.0,7.0,76,0.00,,CLR,0.00,VWS V14.01,2013-06-09 08:57:00,
2013-06-09 05:00:00,62.3,54.7,29.99,East,95,0.0,2.0,76,0.00,,SCT033,0.00,VWS V15.00,2013-06-09 09:00:00,
2013-06-09 05:02:00,62.3,54.7,29.99,East,95,0.0,0.0,76,0.00,,FEW060,0.00,VWS V14.01,2013-06-09 09:02:00,
2013-06-09 05:07:00,62.3,54.7,29.98,East,95,4.0,7.0,76,0.00,,FEW060,0.00,VWS V14.01,2013-06-09 09:07:00,
2013-06-09 05:12:00,62.3,54.7,29.98,East,95,0.0,3.0,76,0.00,,FEW060,0.00,VWS V14.01,2013-06-09 09:12:00,
2013-06-09 05:15:00,62.3,54.7,29.98,East,95,0.0,0.0,76,0.00,,SCT033,0.00,VWS V15.00,2013-06-09 09:15:00,
2013-06-09 05:17:00,62.3,54.7,29.99,East,95,0.0,0.0,76,0.00,,FEW060,0.00,VWS V14.01,2013-06-09 09:17:00,
2013-06-09 05:22:00,62.2,54.9,29.99,East,95,0.0,0.0,77,0.00,,FEW060,0.00,VWS V14.01,2013-06-09 09:22:00,
2013-06-09 05:27:00,62.1,54.8,29.99,East,95,3.0,3.0,77,0.00,,FEW060,0.00,VWS V14.01,2013-06-09 09:27:00,
2013-06-09 05:30:00,62.1,54.8,29.99,East,95,0.0,0.0,77,0.00,,SCT033,0.00,VWS V15.00,2013-06-09 09:30:00,
2013-06-09 05:32:00,62.0,54.7,29.99,East,95,0.0,0.0,77,0.00,,FEW060,0.00,VWS V14.01,2013-06-09 09:32:00,
2013-06-09 05:37:00,61.9,54.6,29.99,East,95,0.0,0.0,77,0.00,,FEW060,0.00,VWS V14.01,2013-06-09 09:37:00,
2013-06-09 05:43:00,61.7,54.4,29.99,East,95,0.0,7.0,77,0.00,,FEW060,0.00,VWS V14.01,2013-06-09 09:43:00,
2013-06-09 05:45:00,61.7,54.8,29.99,East,95,0.0,3.0,78,0.00,,SCT033,0.00,VWS V15.00,2013-06-09 09:45:00,
2013-06-09 05:48:00,61.6,54.7,29.99,East,95,0.0,0.0,78,0.00,,FEW060,0.00,VWS V14.01,2013-06-09 09:48:00,
2013-06-09 05:53:00,61.5,54.6,29.99,East,95,0.0,0.0,78,0.00,,FEW060,0.00,VWS V14.01,2013-06-09 09:53:00,
2013-06-09 05:58:00,61.4,54.5,29.99,East,95,0.0,1.0,78,0.00,,FEW060,0.00,VWS V14.01,2013-06-09 09:58:00,
2013-06-09 06:00:00,61.4,54.5,29.99,East,95,4.0,7.0,78,0.00,,SCT033,0.00,VWS V15.00,2013-06-09 10:00:00,
2013-06-09 06:03:00,61.3,54.4,29.99,East,95,0.0,5.0,78,0.00,,BKN250,0.00,VWS V14.01,2013-06-09 10:03:00,
2013-06-09 06:08:00,61.2,54.3,29.99,East,95,1.0,4.0,78,0.00,,BKN250,0.00,VWS V14.01,2013-06-09 10:08:00,
2013-06-09 06:13:00,61.1,54.5,30.00,East,95,0.0,0.0,79,0.00,,BKN250,0.00,VWS V14.01,2013-06-09 10:13:00,
2013-06-09 06:15:00,61.1,54.5,30.00,East,95,0.0,1.0,79,0.00,,SCT033,0.00,VWS V15.00,2013-06-09 10:15:00,
2013-06-09 06:18:00,61.0,54.5,30.00,East,95,0.0,5.0,79,0.00,,BKN250,0.00,VWS V14.01,2013-06-09 10:18:00,
2013-06-09 06:23:00,61.0,54.5,30.00,East,95,0.0,1.0,79,0.00,,BKN250,0.00,VWS V14.01,2013-06-09 10:23:00,
2013-06-09 06:29:00,61.0,54.5,30.00,East,95,0.0,0.0,79,0.00,,BKN250,0.00,VWS V14.01,2013-06-09 10:29:00,
2013-06-09 06:30:00,61.0,54.5,30.00,East,95,5.0,5.0,79,0.00,,SCT033,0.00,VWS V15.00,2013-06-09 10:30:00,
2013-06-09 06:34:00,60.9,54.3,30.00,East,95,0.0,0.0,79,0.00,,BKN250,0.00,VWS V14.01,2013-06-09 10:34:00,
2013-06-09 06:39:00,61.0,54.5,30.00,East,95,0.0,5.0,79,0.00,,BKN250,0.00,VWS V14.01,2013-06-09 10:39:00,
2013-06-09 06:44:00,61.0,54.5,30.00,East,95,0.0,1.0,79,0.00,,BKN250,0.00,VWS V14.01,2013-06-09 10:44:00,
2013-06-09 06:45:00,61.0,54.5,30.00,East,95,0.0,0.0,79,0.00,,SCT033,0.00,VWS V15.00,2013-06-09 10:45:00,
2013-06-09 06:49:00,61.0,54.5,29.99,East,95,0.0,0.0,79,0.00,,BKN250,0.00,VWS V14.01,2013-06-09 10:49:00,
2013-06-09 06:54:00,61.0,54.5,30.00,East,95,5.0,7.0,79,0.00,,BKN250,0.00,VWS V14.01,2013-06-09 10:54:00,
2013-06-09 06:59:00,61.1,54.9,30.00,East,95,0.0,0.0,80,0.00,,BKN250,0.00,VWS V14.01,2013-06-09 10:59:00,
2013-06-09 07:00:00,61.2,55.0,30.00,East,95,0.0,0.0,80,0.00,,SCT033,0.00,VWS V15.00,2013-06-09 11:00:00,
2013-06-09 07:04:00,61.2,55.0,30.00,East,95,0.0,8.0,80,0.00,,BKN250,0.00,VWS V14.01,2013-06-09 11:04:00,
2013-06-09 07:09:00,61.4,55.2,30.00,East,95,0.0,0.0,80,0.00,,BKN250,0.00,VWS V14.01,2013-06-09 11:09:00,
2013-06-09 07:15:00,61.4,55.2,29.99,East,95,2.0,2.0,80,0.00,,BKN250,0.00,VWS V14.01,2013-06-09 11:15:00,
2013-06-09 07:20:00,61.6,55.0,29.99,East,95,0.0,0.0,79,0.00,,BKN250,0.00,VWS V14.01,2013-06-09 11:20:00,
2013-06-09 07:25:00,61.8,55.2,29.99,East,95,1.0,1.0,79,0.00,,BKN250,0.00,VWS V14.01,2013-06-09 11:25:00,
2013-06-09 07:30:00,62.1,55.5,29.99,East,95,0.0,5.0,79,0.00,,BKN250,0.00,VWS V14.01,2013-06-09 11:30:00,
2013-06-09 07:35:00,62.4,55.5,29.99,East,95,0.0,5.0,78,0.00,,BKN250,0.00,VWS V14.01,2013-06-09 11:35:00,
2013-06-09 07:40:00,62.6,55.7,29.99,East,93,0.0,7.0,78,0.00,,BKN250,0.00,VWS V14.01,2013-06-09 11:40:00,
2013-06-09 07:45:00,62.7,55.8,29.99,East,93,0.0,2.0,78,0.00,,BKN250,0.00,VWS V14.01,2013-06-09 11:45:00,
2013-06-09 07:50:00,62.8,55.8,29.99,East,93,0.0,0.0,78,0.00,,BKN250,0.00,VWS V14.01,2013-06-09 11:50:00,
2013-06-09 07:55:00,62.8,55.8,29.99,East,93,0.0,0.0,78,0.00,,BKN250,0.00,VWS V14.01,2013-06-09 11:55:00,
2013-06-09 08:00:00,62.9,55.6,29.99,East,93,0.0,0.0,77,0.00,,SCT033,0.00,VWS V15.00,2013-06-09 12:00:00,
2013-06-09 08:01:00,62.9,55.6,29.99,East,93,0.0,5.0,77,0.00,,BKN250,0.00,VWS V14.01,2013-06-09 12:01:00,
2013-06-09 08:06:00,63.0,56.0,30.00,East,93,0.0,0.0,78,0.00,,BKN250,0.00,VWS V14.01,2013-06-09 12:06:00,
2013-06-09 08:11:00,63.2,56.2,29.99,East,93,3.0,9.0,78,0.00,,BKN250,0.00,VWS V14.01,2013-06-09 12:11:00,
2013-06-09 08:15:00,63.4,56.4,30.00,East,93,0.0,0.0,78,0.00,,SCT033,0.00,VWS V15.00,2013-06-09 12:15:00,
2013-06-09 08:16:00,63.4,56.4,30.00,East,93,0.0,0.0,78,0.00,,BKN250,0.00,VWS V14.01,2013-06-09 12:16:00,
2013-06-09 08:22:00,63.9,56.9,30.00,East,93,0.0,0.0,78,0.00,,BKN250,0.00,VWS V14.01,2013-06-09 12:22:00,
2013-06-09 08:27:00,64.3,57.0,30.00,East,93,2.0,2.0,77,0.00,,BKN250,0.00,VWS V14.01,2013-06-09 12:27:00,
2013-06-09 08:30:00,64.5,57.1,30.00,East,93,0.0,0.0,77,0.00,,SCT033,0.00,VWS V15.00,2013-06-09 12:30:00,
2013-06-09 08:32:00,64.6,56.9,30.00,East,93,0.0,0.0,76,0.00,,BKN250,0.00,VWS V14.01,2013-06-09 12:32:00,
2013-06-09 08:37:00,64.9,56.8,30.00,East,93,0.0,5.0,75,0.00,,BKN250,0.00,VWS V14.01,2013-06-09 12:37:00,
2013-06-09 08:42:00,65.0,56.9,30.00,East,93,0.0,0.0,75,0.00,,BKN250,0.00,VWS V14.01,2013-06-09 12:42:00,
2013-06-09 08:45:00,65.1,57.0,30.00,East,93,0.0,7.0,75,0.00,,SCT033,0.00,VWS V15.00,2013-06-09 12:45:00,
2013-06-09 08:47:00,65.1,57.0,30.00,East,93,0.0,0.0,75,0.00,,BKN250,0.00,VWS V14.01,2013-06-09 12:47:00,
2013-06-09 08:52:00,65.2,57.1,30.00,East,93,0.0,0.0,75,0.00,,BKN250,0.00,VWS V14.01,2013-06-09 12:52:00,
2013-06-09 08:57:00,65.3,57.2,29.99,East,93,0.0,0.0,75,0.00,,BKN250,0.00,VWS V14.01,2013-06-09 12:57:00,
2013-06-09 09:00:00,65.4,57.3,30.00,East,93,0.0,0.0,75,0.00,,SCT033,0.00,VWS V15.00,2013-06-09 13:00:00,
2013-06-09 09:02:00,65.5,57.4,29.99,East,93,0.0,0.0,75,0.00,,BKN250,0.00,VWS V14.01,2013-06-09 13:02:00,
2013-06-09 09:07:00,66.0,57.9,29.99,East,93,0.0,0.0,75,0.00,,BKN250,0.00,VWS V14.01,2013-06-09 13:07:00,
2013-06-09 09:12:00,66.6,58.4,29.99,East,93,0.0,0.0,75,0.00,,BKN250,0.00,VWS V14.01,2013-06-09 13:12:00,
2013-06-09 09:15:00,67.1,58.9,29.99,East,93,0.0,0.0,75,0.00,,SCT033,0.00,VWS V15.00,2013-06-09 13:15:00,
2013-06-09 09:17:00,67.4,59.2,29.99,East,93,5.0,7.0,75,0.00,,BKN250,0.00,VWS V14.01,2013-06-09 13:17:00,
2013-06-09 09:22:00,68.2,58.8,29.98,East,93,0.0,0.0,72,0.00,,BKN250,0.00,VWS V14.01,2013-06-09 13:22:00,
2013-06-09 09:27:00,68.9,59.5,29.99,East,99,0.0,8.0,72,0.00,,BKN250,0.00,VWS V14.01,2013-06-09 13:27:00,
2013-06-09 09:30:00,69.1,59.7,29.99,East,99,1.0,7.0,72,0.00,,SCT033,0.00,VWS V15.00,2013-06-09 13:30:00,
2013-06-09 09:32:00,69.5,59.7,29.99,East,99,2.0,8.0,71,0.00,,BKN250,0.00,VWS V14.01,2013-06-09 13:32:00,
2013-06-09 09:38:00,70.0,59.8,29.98,ESE,104,0.0,8.0,70,0.00,,BKN250,0.00,VWS V14.01,2013-06-09 13:38:00,
2013-06-09 09:43:00,70.6,60.0,29.98,East,95,0.0,8.0,69,0.00,,BKN250,0.00,VWS V14.01,2013-06-09 13:43:00,
2013-06-09 09:45:00,70.8,59.7,29.98,East,95,2.0,7.0,68,0.00,,SCT033,0.00,VWS V15.00,2013-06-09 13:45:00,
2013-06-09 09:48:00,71.1,60.4,29.98,ESE,113,0.0,1.0,69,0.00,,BKN250,0.00,VWS V14.01,2013-06-09 13:48:00,
2013-06-09 09:53:00,71.7,61.0,29.98,ESE,114,0.0,5.0,69,0.00,,BKN250,0.00,VWS V14.01,2013-06-09 13:53:00,
2013-06-09 09:58:00,72.4,61.2,29.99,ESE,107,7.0,8.0,68,0.00,,BKN250,0.00,VWS V14.01,2013-06-09 13:58:00,
2013-06-09 10:00:00,72.5,60.9,29.99,ESE,104,4.0,7.0,67,0.00,,SCT033,0.00,VWS V15.00,2013-06-09 14:00:00,
2013-06-09 10:04:00,72.7,61.1,29.99,ESE,104,0.0,8.0,67,0.00,,BKN250,0.00,VWS V14.01,2013-06-09 14:04:00,
2013-06-09 10:09:00,73.3,61.7,29.99,ESE,102,7.0,7.0,67,0.00,,BKN250,0.00,VWS V14.01,2013-06-09 14:09:00,
2013-06-09 10:14:00,74.0,62.8,29.98,ESE,102,0.0,0.0,68,0.00,,BKN250,0.00,VWS V14.01,2013-06-09 14:14:00,
2013-06-09 10:15:00,74.2,62.5,29.98,ESE,102,0.0,0.0,67,0.00,,SCT033,0.00,VWS V15.00,2013-06-09 14:15:00,
2013-06-09 10:19:00,74.7,62.2,29.98,ESE,106,0.0,8.0,65,0.00,,BKN250,0.00,VWS V14.01,2013-06-09 14:19:00,
2013-06-09 10:24:00,75.3,62.7,29.98,ESE,114,4.0,4.0,65,0.00,,BKN250,0.00,VWS V14.01,2013-06-09 14:24:00,
2013-06-09 10:29:00,75.6,61.7,29.98,East,89,0.0,8.0,62,0.00,,BKN250,0.00,VWS V14.01,2013-06-09 14:29:00,
2013-06-09 10:30:00,75.6,61.7,29.98,East,89,0.0,8.0,62,0.00,,SCT033,0.00,VWS V15.00,2013-06-09 14:30:00,
2013-06-09 10:34:00,75.6,62.1,29.98,East,101,5.0,9.0,63,0.00,,BKN250,0.00,VWS V14.01,2013-06-09 14:34:00,
2013-06-09 10:39:00,75.9,62.4,29.98,SE,134,11.0,11.0,63,0.00,,BKN250,0.00,VWS V14.01,2013-06-09 14:39:00,
2013-06-09 10:44:00,76.3,63.2,29.98,SE,141,5.0,11.0,64,0.00,,BKN250,0.00,VWS V14.01,2013-06-09 14:44:00,
2013-06-09 10:45:00,76.4,63.3,29.98,SE,130,4.0,11.0,64,0.00,,SCT033,0.00,VWS V15.00,2013-06-09 14:45:00,
2013-06-09 10:49:00,76.8,62.8,29.97,ESE,120,0.0,9.0,62,0.00,,BKN250,0.00,VWS V14.01,2013-06-09 14:49:00,
2013-06-09 10:55:00,77.2,62.7,29.97,SE,125,7.0,7.0,61,0.00,,BKN250,0.00,VWS V14.01,2013-06-09 14:55:00,
2013-06-09 11:00:00,77.6,64.0,29.97,SE,139,9.0,12.0,63,0.00,,BKN250,0.00,VWS V14.01,2013-06-09 15:00:00,
2013-06-09 11:05:00,78.1,63.1,29.97,SE,136,7.0,11.0,60,0.00,,BKN250,0.00,VWS V14.01,2013-06-09 15:05:00,
2013-06-09 11:10:00,78.4,62.9,29.97,SE,126,0.0,5.0,59,0.00,,BKN250,0.00,VWS V14.01,2013-06-09 15:10:00,
2013-06-09 11:15:00,78.8,63.8,29.97,SE,133,0.0,1.0,60,0.00,,BKN250,0.00,VWS V14.01,2013-06-09 15:15:00,
2013-06-09 11:20:00,79.1,63.1,29.97,ESE,112,4.0,5.0,58,0.00,,BKN250,0.00,VWS V14.01,2013-06-09 15:20:00,
2013-06-09 11:25:00,79.5,63.4,29.97,ESE,114,5.0,7.0,58,0.00,,BKN250,0.00,VWS V14.01,2013-06-09 15:25:00,
2013-06-09 11:30:00,79.7,63.1,29.97,ESE,105,3.0,4.0,57,0.00,,BKN250,0.00,VWS V14.01,2013-06-09 15:30:00,
2013-06-09 11:35:00,80.0,63.4,29.97,SE,136,4.0,11.0,57,0.00,,BKN250,0.00,VWS V14.01,2013-06-09 15:35:00,
2013-06-09 11:40:00,80.1,63.5,29.97,East,101,0.0,11.0,57,0.00,,BKN250,0.00,VWS V14.01,2013-06-09 15:40:00,
2013-06-09 11:45:00,80.3,64.2,29.98,SE,136,3.0,9.0,58,0.00,,SCT033,0.00,VWS V15.00,2013-06-09 15:45:00,
2013-06-09 11:46:00,80.4,63.8,29.97,SE,139,0.0,6.0,57,0.00,,BKN250,0.00,VWS V14.01,2013-06-09 15:46:00,
2013-06-09 11:51:00,80.5,63.4,29.97,SE,135,7.0,7.0,56,0.00,,BKN250,0.00,VWS V14.01,2013-06-09 15:51:00,
2013-06-09 11:56:00,80.1,63.0,29.97,SE,141,9.0,10.0,56,0.00,,BKN250,0.00,VWS V14.01,2013-06-09 15:56:00,
2013-06-09 12:00:00,79.9,62.8,29.97,SE,134,0.0,0.0,56,0.00,,SCT033,0.00,VWS V15.00,2013-06-09 16:00:00,
2013-06-09 12:02:00,79.8,63.2,29.97,SE,134,0.0,0.0,57,0.00,,BKN250,0.00,VWS V14.01,2013-06-09 16:02:00,
2013-06-09 12:07:00,79.9,63.8,29.97,ESE,109,0.0,7.0,58,0.00,,BKN250,0.00,VWS V14.01,2013-06-09 16:07:00,
2013-06-09 12:12:00,79.7,62.6,29.96,East,97,3.0,9.0,56,0.00,,BKN250,0.00,VWS V14.01,2013-06-09 16:12:00,
2013-06-09 12:15:00,79.5,63.0,29.96,East,87,0.0,6.0,57,0.00,,SCT033,0.00,VWS V15.00,2013-06-09 16:15:00,
2013-06-09 12:17:00,79.6,63.0,29.96,East,89,1.0,1.0,57,0.00,,BKN250,0.00,VWS V14.01,2013-06-09 16:17:00,
2013-06-09 12:22:00,79.8,63.2,29.96,East,82,0.0,1.0,57,0.00,,SCT090,0.00,VWS V14.01,2013-06-09 16:22:00,
2013-06-09 12:27:00,80.5,63.9,29.96,ESE,116,0.0,2.0,57,0.00,,SCT090,0.00,VWS V14.01,2013-06-09 16:27:00,
2013-06-09 12:30:00,80.8,63.7,29.96,ESE,116,6.0,10.0,56,0.00,,SCT033,0.00,VWS V15.00,2013-06-09 16:30:00,
2013-06-09 12:33:00,80.9,62.2,29.95,ESE,105,0.0,9.0,53,0.00,,SCT090,0.00,VWS V14.01,2013-06-09 16:33:00,
2013-06-09 12:38:00,80.8,62.1,29.95,East,99,5.0,7.0,53,0.00,,SCT090,0.00,VWS V14.01,2013-06-09 16:38:00,
2013-06-09 12:43:00,81.2,61.9,29.95,ENE,76,7.0,11.0,52,0.00,,SCT090,0.00,VWS V14.01,2013-06-09 16:43:00,
2013-06-09 12:45:00,81.1,62.4,29.95,ENE,78,9.0,9.0,53,0.00,,SCT033,0.00,VWS V15.00,2013-06-09 16:45:00,
2013-06-09 12:48:00,81.0,63.3,29.95,East,91,0.0,10.0,55,0.00,,SCT090,0.00,VWS V14.01,2013-06-09 16:48:00,
2013-06-09 12:53:00,81.1,63.4,29.95,East,95,0.0,4.0,55,0.00,,SCT090,0.00,VWS V14.01,2013-06-09 16:53:00,
2013-06-09 12:58:00,81.5,63.8,29.95,East,95,0.0,2.0,55,0.00,,SCT090,0.00,VWS V14.01,2013-06-09 16:58:00,
2013-06-09 13:00:00,81.4,62.1,29.95,ESE,105,5.0,8.0,52,0.00,,SCT033,0.00,VWS V15.00,2013-06-09 17:00:00,
2013-06-09 13:03:00,81.3,62.0,29.95,ESE,105,0.0,2.0,52,0.00,,SCT090,0.00,VWS V14.01,2013-06-09 17:03:00,
2013-06-09 13:08:00,81.0,61.7,29.95,SE,127,6.0,9.0,52,0.00,,SCT090,0.00,VWS V14.01,2013-06-09 17:08:00,
2013-06-09 13:14:00,80.8,61.0,29.95,SE,129,4.0,5.0,51,0.00,,SCT090,0.00,VWS V14.01,2013-06-09 17:14:00,
2013-06-09 13:15:00,80.7,60.9,29.95,SE,129,0.0,1.0,51,0.00,,SCT033,0.00,VWS V15.00,2013-06-09 17:15:00,
2013-06-09 13:19:00,80.6,61.9,29.95,ESE,118,0.0,6.0,53,0.00,,SCT090,0.00,VWS V14.01,2013-06-09 17:19:00,
2013-06-09 13:24:00,80.5,61.8,29.94,ESE,103,4.0,8.0,53,0.00,,BKN250,0.00,VWS V14.01,2013-06-09 17:24:00,
2013-06-09 13:29:00,80.3,62.2,29.94,ESE,102,0.0,2.0,54,0.00,,BKN250,0.00,VWS V14.01,2013-06-09 17:29:00,
2013-06-09 13:30:00,80.4,61.7,29.94,ESE,102,0.0,1.0,53,0.00,,SCT033,0.00,VWS V15.00,2013-06-09 17:30:00,
2013-06-09 13:34:00,80.7,62.5,29.94,ESE,118,9.0,9.0,54,0.00,,BKN250,0.00,VWS V14.01,2013-06-09 17:34:00,
2013-06-09 13:39:00,80.8,61.5,29.94,ESE,107,4.0,8.0,52,0.00,,BKN250,0.00,VWS V14.01,2013-06-09 17:39:00,
2013-06-09 13:44:00,80.2,61.5,29.94,East,85,2.0,2.0,53,0.00,,BKN250,0.00,VWS V14.01,2013-06-09 17:44:00,
2013-06-09 13:45:00,80.1,61.4,29.94,East,86,0.0,6.0,53,0.00,,SCT033,0.00,VWS V15.00,2013-06-09 17:45:00,
2013-06-09 13:49:00,80.1,61.4,29.93,ESE,110,5.0,8.0,53,0.00,,BKN250,0.00,VWS V14.01,2013-06-09 17:49:00,
2013-06-09 13:54:00,80.8,63.7,29.93,ESE,103,1.0,5.0,56,0.00,,BKN250,0.00,VWS V14.01,2013-06-09 17:54:00,
2013-06-09 13:59:00,81.4,62.6,29.93,ESE,108,0.0,2.0,53,0.00,,BKN250,0.00,VWS V14.01,2013-06-09 17:59:00,
2013-06-09 14:00:00,81.4,62.1,29.93,ESE,108,4.0,4.0,52,0.00,,SCT033,0.00,VWS V15.00,2013-06-09 18:00:00,
2013-06-09 14:05:00,81.3,61.5,29.93,ESE,112,0.0,6.0,51,0.00,,BKN250,0.00,VWS V14.01,2013-06-09 18:05:00,
2013-06-09 14:10:00,81.4,62.6,29.93,ESE,118,4.0,13.0,53,0.00,,BKN250,0.00,VWS V14.01,2013-06-09 18:10:00,
2013-06-09 14:15:00,81.5,62.2,29.92,ESE,118,0.0,13.0,52,0.00,,BKN250,0.00,VWS V14.01,2013-06-09 18:15:00,
2013-06-09 14:20:00,81.5,61.7,29.92,SE,124,7.0,13.0,51,0.00,,BKN250,0.00,VWS V14.01,2013-06-09 18:20:00,
2013-06-09 14:25:00,81.6,61.7,29.92,SE,129,0.0,5.0,51,0.00,,BKN250,0.00,VWS V14.01,2013-06-09 18:25:00,
2013-06-09 14:30:00,81.5,61.7,29.92,East,100,0.0,3.0,51,0.00,,BKN250,0.00,VWS V14.01,2013-06-09 18:30:00,
2013-06-09 14:35:00,81.1,61.3,29.92,East,100,0.0,7.0,51,0.00,,BKN250,0.00,VWS V14.01,2013-06-09 18:35:00,
2013-06-09 14:40:00,80.7,60.9,29.92,East,100,0.0,1.0,51,0.00,,BKN250,0.00,VWS V14.01,2013-06-09 18:40:00,
2013-06-09 14:45:00,80.1,59.8,29.92,ESE,104,2.0,4.0,50,0.00,,BKN250,0.00,VWS V14.01,2013-06-09 18:45:00,
2013-06-09 14:50:00,79.8,60.1,29.91,East,101,0.0,5.0,51,0.00,,BKN250,0.00,VWS V14.01,2013-06-09 18:50:00,
2013-06-09 14:55:00,79.7,60.5,29.91,East,100,4.0,4.0,52,0.00,,BKN250,0.00,VWS V14.01,2013-06-09 18:55:00,
2013-06-09 15:00:00,79.7,61.6,29.91,SE,127,2.0,10.0,54,0.00,,BKN250,0.00,VWS V14.01,2013-06-09 19:00:00,
2013-06-09 15:05:00,79.6,61.0,29.91,ESE,119,0.0,3.0,53,0.00,,BKN250,0.00,VWS V14.01,2013-06-09 19:05:00,
2013-06-09 15:10:00,79.5,61.4,29.91,ESE,119,0.0,0.0,54,0.00,,BKN250,0.00,VWS V14.01,2013-06-09 19:10:00,
2013-06-09 15:15:00,79.6,62.0,29.91,ESE,115,0.0,5.0,55,0.00,,SCT033,0.00,VWS V15.00,2013-06-09 19:15:00,
2013-06-09 15:16:00,79.6,62.0,29.91,ESE,115,0.0,3.0,55,0.00,,BKN250,0.00,VWS V14.01,2013-06-09 19:16:00,
2013-06-09 15:21:00,79.9,62.3,29.90,ESE,118,3.0,8.0,55,0.00,,BKN250,0.00,VWS V14.01,2013-06-09 19:21:00,
2013-06-09 15:26:00,80.1,60.9,29.90,ESE,110,1.0,12.0,52,0.00,,BKN250,0.00,VWS V14.01,2013-06-09 19:26:00,
2013-06-09 15:30:00,80.1,60.9,29.90,East,87,3.0,12.0,52,0.00,,SCT033,0.00,VWS V15.00,2013-06-09 19:30:00,
2013-06-09 15:31:00,80.1,60.9,29.89,East,89,4.0,8.0,52,0.00,,BKN250,0.00,VWS V14.01,2013-06-09 19:31:00,
2013-06-09 15:36:00,80.5,61.3,29.89,East,91,2.0,15.0,52,0.00,,BKN250,0.00,VWS V14.01,2013-06-09 19:36:00,
2013-06-09 15:42:00,81.0,62.8,29.89,ESE,114,6.0,14.0,54,0.00,,BKN250,0.00,VWS V14.01,2013-06-09 19:42:00,
2013-06-09 15:45:00,81.2,62.5,29.89,East,87,3.0,14.0,53,0.00,,SCT033,0.00,VWS V15.00,2013-06-09 19:45:00,
2013-06-09 15:47:00,81.2,62.5,29.89,ESE,116,1.0,14.0,53,0.00,,BKN250,0.00,VWS V14.01,2013-06-09 19:47:00,
2013-06-09 15:52:00,81.4,62.6,29.89,ESE,119,9.0,12.0,53,0.00,,BKN250,0.00,VWS V14.01,2013-06-09 19:52:00,
2013-06-09 15:57:00,81.4,62.1,29.89,SE,138,3.0,11.0,52,0.00,,BKN250,0.00,VWS V14.01,2013-06-09 19:57:00,
2013-06-09 16:00:00,81.4,62.6,29.89,ESE,117,0.0,8.0,53,0.00,,SCT033,0.00,VWS V15.00,2013-06-09 20:00:00,
2013-06-09 16:02:00,81.4,63.7,29.89,SE,132,3.0,8.0,55,0.00,,BKN250,0.00,VWS V14.01,2013-06-09 20:02:00,
2013-06-09 16:07:00,81.7,62.4,29.89,SE,128,3.0,14.0,52,0.00,,BKN250,0.00,VWS V14.01,2013-06-09 20:07:00,
2013-06-09 16:12:00,81.8,61.9,29.88,East,89,0.0,7.0,51,0.00,,BKN250,0.00,VWS V14.01,2013-06-09 20:12:00,
2013-06-09 16:15:00,81.8,63.0,29.88,SE,127,4.0,15.0,53,0.00,,SCT033,0.00,VWS V15.00,2013-06-09 20:15:00,
2013-06-09 16:17:00,81.8,62.5,29.88,SE,127,7.0,7.0,52,0.00,,BKN250,0.00,VWS V14.01,2013-06-09 20:17:00,
2013-06-09 16:22:00,81.7,62.4,29.88,ESE,110,1.0,11.0,52,0.00,,BKN250,0.00,VWS V14.01,2013-06-09 20:22:00,
2013-06-09 16:28:00,81.5,62.2,29.88,East,85,6.0,9.0,52,0.00,,BKN250,0.00,VWS V14.01,2013-06-09 20:28:00,
2013-06-09 16:30:00,81.3,62.0,29.88,East,86,0.0,0.0,52,0.00,,SCT033,0.00,VWS V15.00,2013-06-09 20:30:00,
2013-06-09 16:33:00,81.1,62.4,29.88,SE,143,7.0,7.0,53,0.00,,BKN250,0.00,VWS V14.01,2013-06-09 20:33:00,
2013-06-09 16:38:00,80.6,61.9,29.88,ESE,117,0.0,10.0,53,0.00,,BKN250,0.00,VWS V14.01,2013-06-09 20:38:00,
2013-06-09 16:43:00,80.1,61.4,29.88,ESE,122,7.0,7.0,53,0.00,,BKN250,0.00,VWS V14.01,2013-06-09 20:43:00,
2013-06-09 16:45:00,80.1,61.4,29.88,East,95,8.0,8.0,53,0.00,,SCT033,0.00,VWS V15.00,2013-06-09 20:45:00,
2013-06-09 16:48:00,79.9,61.3,29.87,SE,127,0.0,4.0,53,0.00,,BKN250,0.00,VWS V14.01,2013-06-09 20:48:00,
2013-06-09 16:53:00,79.8,61.7,29.87,East,94,0.0,9.0,54,0.00,,BKN250,0.00,VWS V14.01,2013-06-09 20:53:00,
2013-06-09 16:58:00,79.7,62.1,29.87,ENE,70,1.0,10.0,55,0.00,,BKN250,0.00,VWS V14.01,2013-06-09 20:58:00,
2013-06-09 17:00:00,79.6,62.5,29.87,East,100,9.0,11.0,56,0.00,,SCT033,0.00,VWS V15.00,2013-06-09 21:00:00,
2013-06-09 17:03:00,79.5,62.5,29.87,ENE,76,18.0,18.0,56,0.00,,BKN250,0.00,VWS V14.01,2013-06-09 21:03:00,
2013-06-09 17:09:00,79.6,63.0,29.86,East,89,5.0,14.0,57,0.00,,BKN250,0.00,VWS V14.01,2013-06-09 21:09:00,
2013-06-09 17:14:00,79.7,63.1,29.86,SE,128,1.0,10.0,57,0.00,,BKN250,0.00,VWS V14.01,2013-06-09 21:14:00,
2013-06-09 17:15:00,79.7,63.1,29.86,ENE,65,3.0,14.0,57,0.00,,SCT033,0.00,VWS V15.00,2013-06-09 21:15:00,
2013-06-09 17:19:00,79.6,63.0,29.86,East,94,0.0,4.0,57,0.00,,BKN250,0.00,VWS V14.01,2013-06-09 21:19:00,
2013-06-09 17:24:00,79.7,63.1,29.86,East,84,0.0,8.0,57,0.00,,OVC250,0.00,VWS V14.01,2013-06-09 21:24:00,
2013-06-09 17:29:00,79.7,63.1,29.86,ESE,114,6.0,16.0,57,0.00,,OVC250,0.00,VWS V14.01,2013-06-09 21:29:00,
2013-06-09 17:30:00,79.7,63.1,29.86,ESE,112,6.0,10.0,57,0.00,,SCT033,0.00,VWS V15.00,2013-06-09 21:30:00,
2013-06-09 17:34:00,79.7,63.1,29.86,East,83,0.0,10.0,57,0.00,,OVC250,0.00,VWS V14.01,2013-06-09 21:34:00,
2013-06-09 17:39:00,79.6,63.5,29.86,SE,134,8.0,10.0,58,0.00,,OVC250,0.00,VWS V14.01,2013-06-09 21:39:00,
2013-06-09 17:44:00,79.6,62.5,29.86,East,89,5.0,13.0,56,0.00,,OVC250,0.00,VWS V14.01,2013-06-09 21:44:00,
2013-06-09 17:45:00,79.5,62.5,29.86,ESE,107,0.0,11.0,56,0.00,,SCT033,0.00,VWS V15.00,2013-06-09 21:45:00,
2013-06-09 17:50:00,79.3,62.3,29.86,ENE,66,3.0,7.0,56,0.00,,OVC250,0.00,VWS V14.01,2013-06-09 21:50:00,
2013-06-09 17:55:00,79.2,62.7,29.86,ENE,58,0.0,8.0,57,0.00,,OVC250,0.00,VWS V14.01,2013-06-09 21:55:00,
2013-06-09 18:00:00,79.1,62.1,29.86,ESE,103,1.0,7.0,56,0.00,,OVC250,0.00,VWS V14.01,2013-06-09 22:00:00,
2013-06-09 18:05:00,78.9,61.4,29.86,ESE,113,0.0,14.0,55,0.00,,OVC250,0.00,VWS V14.01,2013-06-09 22:05:00,
2013-06-09 18:10:00,78.6,61.6,29.86,NE,56,7.0,12.0,56,0.00,,OVC250,0.00,VWS V14.01,2013-06-09 22:10:00,
2013-06-09 18:15:00,78.5,61.5,29.86,ENE,71,7.0,14.0,56,0.00,,OVC250,0.00,VWS V14.01,2013-06-09 22:15:00,
2013-06-09 18:20:00,78.3,61.8,29.86,East,92,0.0,8.0,57,0.00,,OVC250,0.00,VWS V14.01,2013-06-09 22:20:00,
2013-06-09 18:25:00,78.3,61.8,29.86,East,85,17.0,17.0,57,0.00,,OVC250,0.00,VWS V14.01,2013-06-09 22:25:00,
2013-06-09 18:30:00,78.1,61.1,29.86,East,84,7.0,11.0,56,0.00,,OVC250,0.00,VWS V14.01,2013-06-09 22:30:00,
2013-06-09 18:36:00,78.0,61.0,29.86,ENE,64,9.0,14.0,56,0.00,,OVC250,0.00,VWS V14.01,2013-06-09 22:36:00,
2013-06-09 18:41:00,78.0,61.0,29.86,East,99,11.0,11.0,56,0.00,,OVC250,0.00,VWS V14.01,2013-06-09 22:41:00,
2013-06-09 18:45:00,78.0,61.0,29.86,ESE,110,4.0,11.0,56,0.00,,SCT033,0.00,VWS V15.00,2013-06-09 22:45:00,
2013-06-09 18:46:00,77.9,61.0,29.86,East,94,5.0,12.0,56,0.00,,OVC250,0.00,VWS V14.01,2013-06-09 22:46:00,
2013-06-09 18:51:00,77.7,60.8,29.86,East,89,3.0,8.0,56,0.00,,OVC250,0.00,VWS V14.01,2013-06-09 22:51:00,
2013-06-09 18:56:00,77.4,60.5,29.86,East,87,9.0,13.0,56,0.00,,OVC250,0.00,VWS V14.01,2013-06-09 22:56:00,
2013-06-09 19:00:00,77.2,60.8,29.86,East,99,3.0,10.0,57,0.00,,SCT033,0.00,VWS V15.00,2013-06-09 23:00:00,
2013-06-09 19:01:00,77.1,60.7,29.86,East,91,11.0,12.0,57,0.00,,OVC250,0.00,VWS V14.01,2013-06-09 23:01:00,
2013-06-09 19:07:00,76.9,60.5,29.86,ENE,74,0.0,7.0,57,0.00,,OVC250,0.00,VWS V14.01,2013-06-09 23:07:00,
2013-06-09 19:12:00,76.7,60.8,29.86,ESE,118,9.0,9.0,58,0.00,,OVC250,0.00,VWS V14.01,2013-06-09 23:12:00,
2013-06-09 19:15:00,76.6,61.2,29.86,ENE,77,18.0,18.0,59,0.00,,SCT033,0.00,VWS V15.00,2013-06-09 23:15:00,
2013-06-09 19:17:00,76.5,61.1,29.86,East,87,15.0,16.0,59,0.00,,OVC250,0.00,VWS V14.01,2013-06-09 23:17:00,
2013-06-09 19:22:00,76.3,61.4,29.86,East,96,0.0,10.0,60,0.00,,OVC250,0.00,VWS V14.01,2013-06-09 23:22:00,
2013-06-09 19:27:00,76.0,61.6,29.86,East,84,11.0,14.0,61,0.00,,OVC250,0.00,VWS V14.01,2013-06-09 23:27:00,
2013-06-09 19:30:00,75.8,60.9,29.86,East,98,0.0,1.0,60,0.00,,SCT033,0.00,VWS V15.00,2013-06-09 23:30:00,
2013-06-09 19:32:00,75.7,61.3,29.86,East,90,0.0,0.0,61,0.00,,OVC250,0.00,VWS V14.01,2013-06-09 23:32:00,
2013-06-09 19:37:00,75.6,61.2,29.86,East,98,0.0,8.0,61,0.00,,OVC250,0.00,VWS V14.01,2013-06-09 23:37:00,
2013-06-09 19:42:00,75.5,60.7,29.86,ENE,70,0.0,4.0,60,0.00,,OVC250,0.00,VWS V14.01,2013-06-09 23:42:00,
2013-06-09 19:45:00,75.5,60.7,29.86,East,93,0.0,1.0,60,0.00,,SCT033,0.00,VWS V15.00,2013-06-09 23:45:00,
2013-06-09 19:47:00,75.4,60.6,29.86,ENE,62,9.0,12.0,60,0.00,,OVC250,0.00,VWS V14.01,2013-06-09 23:47:00,
2013-06-09 19:52:00,75.4,60.6,29.86,ENE,67,2.0,5.0,60,0.00,,OVC250,0.00,VWS V14.01,2013-06-09 23:52:00,
2013-06-09 19:57:00,75.4,60.6,29.86,NE,47,0.0,7.0,60,0.00,,OVC250,0.00,VWS V14.01,2013-06-09 23:57:00,
2013-06-09 20:00:00,75.3,60.5,29.86,ENE,74,0.0,1.0,60,0.00,,SCT033,0.00,VWS V15.00,2013-06-10 00:00:00,
2013-06-09 20:02:00,75.3,60.5,29.86,NE,56,5.0,8.0,60,0.00,,OVC250,0.00,VWS V14.01,2013-06-10 00:02:00,
2013-06-09 20:07:00,75.2,60.4,29.86,East,85,0.0,0.0,60,0.00,,OVC250,0.00,VWS V14.01,2013-06-10 00:07:00,
2013-06-09 20:13:00,75.1,60.3,29.86,East,92,0.0,1.0,60,0.00,,OVC250,0.00,VWS V14.01,2013-06-10 00:13:00,
2013-06-09 20:15:00,75.1,60.3,29.86,ESE,107,0.0,2.0,60,0.00,,SCT033,0.00,VWS V15.00,2013-06-10 00:15:00,
2013-06-09 20:18:00,75.1,60.8,29.86,South,187,0.0,0.0,61,0.00,,OVC250,0.00,VWS V14.01,2013-06-10 00:18:00,
2013-06-09 20:23:00,75.0,62.0,29.86,SW,215,8.0,10.0,64,0.01,,OVC220,0.01,VWS V14.01,2013-06-10 00:23:00,
2013-06-09 20:28:00,74.5,63.3,29.86,SW,224,0.0,0.0,68,0.01,,OVC220,0.01,VWS V14.01,2013-06-10 00:28:00,
2013-06-09 20:30:00,74.4,63.6,29.86,SW,228,0.0,4.0,69,0.01,,SCT033,0.01,VWS V15.00,2013-06-10 00:30:00,
2013-06-09 20:33:00,74.1,63.7,29.86,SW,228,0.0,0.0,70,0.01,,OVC220,0.01,VWS V14.01,2013-06-10 00:33:00,
2013-06-09 20:38:00,73.7,63.7,29.86,SW,228,0.0,0.0,71,0.01,,OVC220,0.01,VWS V14.01,2013-06-10 00:38:00,
2013-06-09 20:43:00,73.2,64.0,29.86,SW,228,0.0,0.0,73,0.01,,OVC220,0.01,VWS V14.01,2013-06-10 00:43:00,
2013-06-09 20:45:00,73.0,63.8,29.87,SW,228,0.0,0.0,73,0.01,,SCT033,0.01,VWS V15.00,2013-06-10 00:45:00,
2013-06-09 20:48:00,72.6,64.2,29.86,SW,228,0.0,0.0,75,0.01,,OVC220,0.01,VWS V14.01,2013-06-10 00:48:00,
2013-06-09 20:53:00,72.2,64.2,29.86,SW,228,0.0,0.0,76,0.01,,OVC220,0.01,VWS V14.01,2013-06-10 00:53:00,
2013-06-09 20:58:00,71.8,64.2,29.86,SW,228,0.0,0.0,77,0.01,,OVC220,0.01,VWS V14.01,2013-06-10 00:58:00,
2013-06-09 21:00:00,71.7,64.1,29.86,SW,228,0.0,0.0,77,0.01,,SCT033,0.01,VWS V15.00,2013-06-10 01:00:00,
2013-06-09 21:04:00,71.4,64.2,29.86,SW,228,0.0,0.0,78,0.01,,OVC220,0.01,VWS V14.01,2013-06-10 01:04:00,
2013-06-09 21:09:00,71.0,63.8,29.85,East,83,0.0,9.0,78,0.01,,OVC220,0.01,VWS V14.01,2013-06-10 01:09:00,
2013-06-09 21:14:00,70.5,61.8,29.85,East,97,0.0,3.0,74,0.01,,OVC220,0.01,VWS V14.01,2013-06-10 01:14:00,
2013-06-09 21:15:00,70.4,61.7,29.86,East,80,3.0,8.0,74,0.01,,SCT033,0.01,VWS V15.00,2013-06-10 01:15:00,
2013-06-09 21:19:00,70.4,61.3,29.86,East,97,3.0,7.0,73,0.01,,OVC220,0.01,VWS V14.01,2013-06-10 01:19:00,
2013-06-09 21:24:00,70.6,60.8,29.85,East,90,8.0,8.0,71,0.01,,OVC250,0.01,VWS V14.01,2013-06-10 01:24:00,
2013-06-09 21:29:00,70.9,59.8,29.85,East,80,7.0,9.0,68,0.01,,OVC250,0.01,VWS V14.01,2013-06-10 01:29:00,
2013-06-09 21:30:00,71.1,60.0,29.86,East,84,0.0,6.0,68,0.01,,SCT033,0.01,VWS V15.00,2013-06-10 01:30:00,
2013-06-09 21:34:00,71.3,59.8,29.85,ENE,71,5.0,8.0,67,0.00,,OVC250,0.01,VWS V14.01,2013-06-10 01:34:00,
2013-06-09 21:39:00,71.6,59.7,29.85,East,80,0.0,2.0,66,0.00,,OVC250,0.01,VWS V14.01,2013-06-10 01:39:00,
2013-06-09 21:44:00,71.8,59.4,29.85,NE,55,4.0,7.0,65,0.00,,OVC250,0.01,VWS V14.01,2013-06-10 01:44:00,
2013-06-09 21:45:00,71.8,59.4,29.85,NE,48,3.0,12.0,65,0.00,,SCT033,0.01,VWS V15.00,2013-06-10 01:45:00,
2013-06-09 21:49:00,72.0,59.2,29.85,NE,51,2.0,10.0,64,0.00,,OVC250,0.01,VWS V14.01,2013-06-10 01:49:00,
2013-06-09 21:55:00,72.1,59.3,29.85,ENE,64,0.0,1.0,64,0.00,,OVC250,0.01,VWS V14.01,2013-06-10 01:55:00,
2013-06-09 22:00:00,72.1,58.8,29.85,ENE,64,4.0,6.0,63,0.00,,OVC250,0.01,VWS V14.01,2013-06-10 02:00:00,
2013-06-09 22:05:00,72.0,58.7,29.85,NE,46,0.0,5.0,63,0.00,,OVC250,0.01,VWS V14.01,2013-06-10 02:05:00,
2013-06-09 22:10:00,71.9,58.6,29.85,ENE,69,1.0,3.0,63,0.00,,OVC250,0.01,VWS V14.01,2013-06-10 02:10:00,
2013-06-09 22:15:00,71.8,59.0,29.85,ENE,67,2.0,5.0,64,0.00,,OVC250,0.01,VWS V14.01,2013-06-10 02:15:00,
2013-06-09 22:20:00,71.7,58.9,29.85,NE,51,5.0,13.0,64,0.00,,OVC250,0.01,VWS V14.01,2013-06-10 02:20:00,
2013-06-09 22:25:00,71.6,58.3,29.84,NE,39,1.0,8.0,63,0.00,,OVC250,0.01,VWS V14.01,2013-06-10 02:25:00,
2013-06-09 22:30:00,71.6,58.3,29.85,ENE,78,0.0,2.0,63,0.00,,SCT033,0.01,VWS V15.00,2013-06-10 02:30:00,
2013-06-09 22:31:00,71.5,58.3,29.85,East,80,0.0,6.0,63,0.00,,OVC250,0.01,VWS V14.01,2013-06-10 02:31:00,
2013-06-09 22:36:00,71.5,58.3,29.84,NE,54,3.0,10.0,63,0.00,,OVC250,0.01,VWS V14.01,2013-06-10 02:36:00,
2013-06-09 22:41:00,71.3,58.1,29.84,ESE,113,8.0,12.0,63,0.00,,OVC250,0.01,VWS V14.01,2013-06-10 02:41:00,
2013-06-09 22:45:00,71.4,58.2,29.84,East,91,5.0,5.0,63,0.00,,SCT033,0.01,VWS V15.00,2013-06-10 02:45:00,
2013-06-09 22:46:00,71.3,58.1,29.85,East,90,5.0,10.0,63,0.00,,OVC250,0.01,VWS V14.01,2013-06-10 02:46:00,
2013-06-09 22:51:00,71.3,58.1,29.84,ENE,77,6.0,8.0,63,0.00,,OVC250,0.01,VWS V14.01,2013-06-10 02:51:00,
2013-06-09 22:56:00,71.2,58.4,29.84,NE,50,3.0,3.0,64,0.00,,OVC250,0.01,VWS V14.01,2013-06-10 02:56:00,
2013-06-09 23:00:00,71.1,57.9,29.84,ENE,75,7.0,7.0,63,0.00,,SCT033,0.01,VWS V15.00,2013-06-10 03:00:00,
2013-06-09 23:01:00,71.0,57.8,29.84,ENE,73,8.0,9.0,63,0.00,,OVC250,0.01,VWS V14.01,2013-06-10 03:01:00,
2013-06-09 23:06:00,70.9,57.7,29.84,ENE,71,0.0,2.0,63,0.00,,OVC250,0.01,VWS V14.01,2013-06-10 03:06:00,
2013-06-09 23:12:00,70.7,57.5,29.84,NE,56,3.0,7.0,63,0.00,,OVC250,0.01,VWS V14.01,2013-06-10 03:12:00,
2013-06-09 23:15:00,70.6,57.8,29.84,East,84,6.0,6.0,64,0.00,,SCT033,0.01,VWS V15.00,2013-06-10 03:15:00,
2013-06-09 23:17:00,70.6,57.8,29.84,ENE,76,5.0,7.0,64,0.00,,OVC250,0.01,VWS V14.01,2013-06-10 03:17:00,
2013-06-09 23:22:00,70.4,57.2,29.84,NE,35,2.0,8.0,63,0.00,,OVC250,0.01,VWS V14.01,2013-06-10 03:22:00,
2013-06-09 23:27:00,70.4,57.7,29.84,ENE,65,2.0,6.0,64,0.00,,OVC240,0.01,VWS V14.01,2013-06-10 03:27:00,
2013-06-09 23:30:00,70.3,57.6,29.83,NE,44,5.0,7.0,64,0.00,,SCT033,0.01,VWS V15.00,2013-06-10 03:30:00,
2013-06-09 23:32:00,70.3,57.6,29.83,ENE,76,0.0,8.0,64,0.00,,OVC240,0.01,VWS V14.01,2013-06-10 03:32:00,
2013-06-09 23:37:00,70.2,57.5,29.83,East,98,7.0,7.0,64,0.00,,OVC240,0.01,VWS V14.01,2013-06-10 03:37:00,
2013-06-09 23:43:00,70.1,56.9,29.83,NE,51,4.0,8.0,63,0.00,,OVC240,0.01,VWS V14.01,2013-06-10 03:43:00,
2013-06-09 23:45:00,70.0,56.8,29.83,ENE,78,3.0,6.0,63,0.00,,SCT033,0.01,VWS V15.00,2013-06-10 03:45:00,
2013-06-09 23:48:00,70.0,56.8,29.84,East,82,0.0,5.0,63,0.00,,OVC240,0.01,VWS V14.01,2013-06-10 03:48:00,
2013-06-09 23:53:00,69.9,57.2,29.84,NE,50,7.0,10.0,64,0.00,,OVC240,0.01,VWS V14.01,2013-06-10 03:53:00,
2013-06-09 23:58:00,69.9,56.8,29.84,ENE,68,7.0,8.0,63,0.00,,OVC240,0.01,VWS V14.01,2013-06-10 03:58:00,